Weather History for Abingdon, VA

Change the Weather History Date:

Wednesday, February 27, 2013

  Actual Average (KTRI) Record (KTRI)
Temperature  
Mean Temperature 40 °F 42 °F  
Max Temperature 43 °F 54 °F 74 °F (1996)
Min Temperature 37 °F 31 °F 2 °F (1963)
Degree Days  
Heating Degree Days 25 23  
Month to date heating degree days 705  
Since 1 July heating degree days 3359  
Cooling Degree Days 0 0  
Month to date cooling degree days 0  
Year to date cooling degree days 0  
Moisture  
Dew Point 35 °F    
Average Humidity 82    
Maximum Humidity 95    
Minimum Humidity 70    
Precipitation  
Precipitation 0.02 in 0.12 in 1.02 in (1987)
Month to date precipitation 3.33  
Year to date precipitation 6.70  
Snow  
Snow 0.00 in 0.10 in - ()
Month to date snowfall 3.3  
Since 1 July snowfall 10.7  
Snow Depth -    
Sea Level Pressure  
Sea Level Pressure 29.72 in    
Wind  
Wind Speed 11 mph (West)    
Max Wind Speed 15 mph    
Max Gust Speed 28 mph    
Visibility 10 miles    
Events Rain    
T = Trace of Precipitation, MM = Missing Value Source: NWS Daily Summary

Daily Weather History Graph

Daily Weather History Graph

Search for Another Location

Airport:

Trip Planner

Search our weather history database for the weather conditions in past years. The results will help you decide how hot, cold, wet, or windy it might be!

Date:

Astronomy

Feb. 27, 2013 Rise Set
Actual Time 7:01 AM EST 6:20 PM EST
Civil Twilight 6:35 AM EST 6:46 PM EST
Nautical Twilight 6:05 AM EST 7:16 PM EST
Astronomical Twilight 5:35 AM EST 7:46 PM EST
Moon 8:35 PM EST (2/27) 7:40 AM EST (2/27)
Length of Visible Light 12h 11m
Length of Day
11h 19m
Waning Gibbous, 96% of the Moon is Illuminated
Feb 27
Waning Gibbous
Mar 4
Last Quarter
Mar 11
New
Mar 19
First Quarter
Mar 27
Full

Hourly Weather History & Observations

Time (EST) Temp. Windchill Dew Point Humidity Pressure Visibility Wind Dir Wind Speed Gust Speed Precip Events Conditions
12:15 AM 43.9 °F 37.2 °F 36.1 °F 74% 29.62 in 10.0 mi West 13.8 mph 27.6 mph N/A   Overcast
12:35 AM 43.2 °F 37.4 °F 36.0 °F 76% 29.62 in 10.0 mi West 10.4 mph 20.7 mph N/A   Light Drizzle
1:15 AM 41.7 °F 37.3 °F 37.2 °F 84% 29.63 in 7.0 mi West 6.9 mph - N/A   Overcast
1:35 AM 41.9 °F 34.6 °F 36.0 °F 79% 29.63 in 10.0 mi West 13.8 mph 20.7 mph N/A   Overcast
1:55 AM 42.3 °F 35.1 °F 35.6 °F 77% 29.64 in 10.0 mi West 13.8 mph 17.3 mph N/A   Overcast
2:15 AM 42.4 °F 36.1 °F 34.9 °F 75% 29.64 in 10.0 mi West 11.5 mph 23.0 mph N/A   Overcast
2:35 AM 42.3 °F 34.8 °F 35.1 °F 76% 29.64 in 10.0 mi WNW 15.0 mph 20.7 mph N/A   Overcast
2:55 AM 41.5 °F 34.2 °F 35.1 °F 78% 29.64 in 10.0 mi WNW 13.8 mph 19.6 mph N/A   Overcast
3:15 AM 41.2 °F 34.1 °F 35.6 °F 81% 29.64 in 10.0 mi West 12.7 mph 19.6 mph N/A   Overcast
3:35 AM 40.8 °F 33.3 °F 35.4 °F 81% 29.64 in 10.0 mi West 13.8 mph 20.7 mph N/A   Overcast
3:55 AM 40.6 °F 35.4 °F 35.1 °F 80% 29.64 in 10.0 mi WNW 8.1 mph - N/A   Overcast
4:15 AM 40.3 °F 33.0 °F 34.3 °F 79% 29.65 in 10.0 mi West 12.7 mph 17.3 mph N/A   Overcast
4:35 AM 40.1 °F 32.0 °F 34.0 °F 79% 29.66 in 10.0 mi West 15.0 mph 20.7 mph N/A   Overcast
4:55 AM 39.7 °F 33.2 °F 34.2 °F 80% 29.67 in 10.0 mi West 10.4 mph - N/A   Overcast
5:15 AM 39.2 °F 31.2 °F 35.1 °F 85% 29.68 in 10.0 mi West 13.8 mph 20.7 mph N/A Rain Light Rain
5:35 AM 37.8 °F 29.8 °F 35.6 °F 92% 29.69 in 7.0 mi West 12.7 mph 18.4 mph N/A Rain Rain
5:55 AM 38.3 °F 33.2 °F 35.6 °F 90% 29.69 in 10.0 mi West 6.9 mph - N/A   Overcast
6:35 AM 38.3 °F 31.9 °F 35.2 °F 89% 29.70 in 10.0 mi West 9.2 mph - N/A   Overcast
6:55 AM 38.3 °F 31.9 °F 35.1 °F 88% 29.71 in 10.0 mi West 9.2 mph 17.3 mph N/A   Overcast
7:15 AM 38.3 °F 30.9 °F 35.1 °F 88% 29.72 in 10.0 mi West 11.5 mph - N/A   Overcast
7:35 AM 38.3 °F 32.5 °F 35.4 °F 89% 29.72 in 10.0 mi West 8.1 mph - N/A   Overcast
7:55 AM 38.5 °F 31.6 °F 35.1 °F 87% 29.73 in 10.0 mi West 10.4 mph 17.3 mph N/A   Overcast
8:15 AM 38.5 °F 30.7 °F 35.4 °F 89% 29.73 in 10.0 mi West 12.7 mph 17.3 mph N/A   Overcast
8:35 AM 38.5 °F 31.6 °F 35.4 °F 89% 29.74 in 10.0 mi West 10.4 mph - N/A   Overcast
8:55 AM 38.5 °F 30.3 °F 34.9 °F 87% 29.75 in 10.0 mi West 13.8 mph 18.4 mph N/A   Overcast
9:15 AM 38.5 °F 30.7 °F 34.7 °F 86% 29.75 in 10.0 mi West 12.7 mph 18.4 mph N/A   Overcast
9:35 AM 38.5 °F 30.3 °F 34.7 °F 86% 29.76 in 10.0 mi West 13.8 mph 18.4 mph N/A   Overcast
9:55 AM 39.2 °F 31.2 °F 34.9 °F 84% 29.77 in 10.0 mi West 13.8 mph 17.3 mph N/A   Overcast
10:15 AM 39.0 °F 32.3 °F 34.7 °F 84% 29.77 in 10.0 mi West 10.4 mph - N/A   Overcast
10:35 AM 39.2 °F 31.6 °F 34.3 °F 83% 29.77 in 10.0 mi West 12.7 mph 20.7 mph N/A   Overcast
10:55 AM 39.2 °F 32.5 °F 34.0 °F 82% 29.77 in 10.0 mi West 10.4 mph 18.4 mph N/A   Overcast
11:15 AM 39.4 °F 31.1 °F 34.0 °F 81% 29.78 in 10.0 mi West 15.0 mph 19.6 mph N/A   Overcast
11:35 AM 39.4 °F 32.7 °F 34.0 °F 81% 29.78 in 10.0 mi West 10.4 mph - N/A   Overcast
12:15 PM 39.4 °F 31.8 °F 33.8 °F 80% 29.78 in 10.0 mi West 12.7 mph 18.4 mph N/A   Overcast
12:35 PM 39.7 °F 32.7 °F 33.8 °F 79% 29.77 in 10.0 mi West 11.5 mph 18.4 mph N/A   Overcast
12:55 PM 40.1 °F 33.2 °F 34.0 °F 79% 29.76 in 10.0 mi WSW 11.5 mph 17.3 mph N/A   Overcast
1:15 PM 39.6 °F 34.0 °F 34.3 °F 82% 29.76 in 10.0 mi West 8.1 mph 20.7 mph N/A   Overcast
1:35 PM 39.7 °F 31.5 °F 34.5 °F 82% 29.75 in 10.0 mi West 15.0 mph 20.7 mph N/A   Overcast
1:55 PM 39.2 °F 31.2 °F 34.7 °F 84% 29.75 in 10.0 mi WSW 13.8 mph - N/A   Overcast
2:15 PM 39.6 °F 32.1 °F 34.9 °F 83% 29.75 in 10.0 mi West 12.7 mph - N/A   Overcast
2:35 PM 39.7 °F 31.9 °F 34.3 °F 81% 29.75 in 10.0 mi West 13.8 mph - N/A   Overcast
2:55 PM 40.1 °F 32.4 °F 34.3 °F 80% 29.75 in 10.0 mi West 13.8 mph 18.4 mph N/A   Overcast
3:15 PM 40.6 °F 34.3 °F 34.2 °F 78% 29.75 in 10.0 mi West 10.4 mph - N/A   Overcast
3:35 PM 41.9 °F 36.3 °F 34.7 °F 76% 29.74 in 10.0 mi West 9.2 mph 16.1 mph N/A   Overcast
4:15 PM 42.3 °F 35.9 °F 33.4 °F 71% 29.73 in 10.0 mi West 11.5 mph 18.4 mph N/A   Overcast
4:35 PM 43.3 °F 37.7 °F 34.2 °F 70% 29.73 in 10.0 mi West 10.4 mph - N/A   Overcast
4:55 PM 43.9 °F 38.3 °F 34.9 °F 71% 29.72 in 10.0 mi West 10.4 mph 17.3 mph N/A   Overcast
5:15 PM 42.8 °F 38.0 °F 34.2 °F 72% 29.73 in 10.0 mi West 8.1 mph - N/A   Overcast
5:35 PM 42.4 °F 37.5 °F 34.0 °F 72% 29.73 in 10.0 mi West 8.1 mph - N/A   Overcast
6:15 PM 42.1 °F 37.7 °F 33.4 °F 71% 29.74 in 10.0 mi NW 6.9 mph - N/A   Mostly Cloudy
6:35 PM 41.0 °F 35.8 °F 33.3 °F 74% 29.76 in 10.0 mi NW 8.1 mph - N/A   Mostly Cloudy
6:55 PM 41.0 °F 39.0 °F 33.3 °F 74% 29.76 in 10.0 mi West 3.5 mph - N/A   Overcast
7:15 PM 40.8 °F 35.6 °F 32.9 °F 73% 29.76 in 10.0 mi West 8.1 mph - N/A   Overcast
7:35 PM 41.0 °F 35.2 °F 33.3 °F 74% 29.76 in 10.0 mi West 9.2 mph - N/A   Light Drizzle
8:35 PM 38.7 °F 32.4 °F 36.9 °F 93% 29.76 in 10.0 mi West 9.2 mph - 0.01 in Rain Rain
8:55 PM 38.5 °F 32.7 °F 36.9 °F 94% 29.76 in 7.0 mi West 8.1 mph 17.3 mph 0.01 in Rain Light Rain
9:15 PM 38.3 °F 33.2 °F 36.9 °F 95% 29.76 in 10.0 mi West 6.9 mph - 0.01 in Rain Light Rain
9:35 PM 38.3 °F 32.5 °F 36.9 °F 95% 29.77 in 10.0 mi West 8.1 mph - 0.01 in   Overcast
10:15 PM 38.1 °F 31.7 °F 35.8 °F 91% 29.77 in 10.0 mi West 9.2 mph - N/A   Overcast
10:35 PM 37.9 °F 31.5 °F 35.8 °F 92% 29.77 in 10.0 mi WNW 9.2 mph - N/A   Overcast
10:55 PM 37.8 °F 31.3 °F 35.4 °F 91% 29.76 in 10.0 mi West 9.2 mph - N/A   Overcast
11:15 PM 37.9 °F 30.9 °F 33.6 °F 84% 29.76 in 10.0 mi West 10.4 mph 20.7 mph N/A   Overcast
11:35 PM 37.6 °F 29.1 °F 32.5 °F 82% 29.75 in 10.0 mi WNW 13.8 mph 17.3 mph N/A   Overcast